La Grande, OR

7:40 AM PDT on October 15, 2019 (GMT -0700)
La Grande-Union County

Weather History for KLGD - September, 2019

Change the Weather History Date:

Tuesday, September 17, 2019

  Actual Average Record
Temperature  
Mean Temperature 55 °F -  
Max Temperature 64 °F 72 °F 97 °F (1981)
Min Temperature 46 °F 40 °F 29 °F (1965)
Degree Days  
Heating Degree Days 10    
Growing Degree Days 5 (Base 50)    
Moisture  
Dew Point 43 °F    
Average Humidity 67    
Maximum Humidity 86    
Minimum Humidity 35    
Precipitation  
Precipitation 0.13 in - - ()
Sea Level Pressure  
Sea Level Pressure 30.32 in    
Wind  
Wind Speed 10 mph (South)    
Max Wind Speed 22 mph    
Max Gust Speed 33 mph    
Visibility 10 miles    
Events Rain    
Averages and records for this station are not official NWS values.
T = Trace of Precipitation, MM = Missing Value Source: NWS Daily Summary

Daily Weather History Graph

Daily Weather History Graph

Search for Another Location

Airport or City:

Astronomy

Sep. 17, 2019 Rise Set
Actual Time 6:32 AM PDT 6:59 PM PDT
Civil Twilight 6:03 AM PDT 7:28 PM PDT
Nautical Twilight 5:28 AM PDT 8:03 PM PDT
Astronomical Twilight 4:52 AM PDT 8:39 PM PDT
Moon 8:56 PM PDT (9/17) 9:49 AM PDT (9/17)
Length of Visible Light 13h 25m
Length of Day
12h 26m
Waning Gibbous, 88% of the Moon is Illuminated
Sep 17
Waning Gibbous
Sep 21
Last Quarter
Sep 28
New
Oct 5
First Quarter
Oct 13
Full

Hourly Weather History & Observations

Time (PDT) Temp. Dew Point Humidity Pressure Visibility Wind Dir Wind Speed Gust Speed Precip Events Conditions
12:56 AM 48.9 °F 43.0 °F 80% 30.34 in 10.0 mi NW 11.5 mph - N/A   Mostly Cloudy
1:56 AM 50.0 °F 43.0 °F 77% 30.36 in 10.0 mi WNW 8.1 mph - N/A   Overcast
2:56 AM 50.0 °F 43.0 °F 77% 30.37 in 10.0 mi WNW 10.4 mph - N/A   Mostly Cloudy
3:56 AM 48.9 °F 43.0 °F 80% 30.38 in 10.0 mi NNW 6.9 mph - N/A   Overcast
4:56 AM 48.0 °F 43.0 °F 83% 30.38 in 10.0 mi NW 3.5 mph - N/A   Overcast
5:56 AM 46.9 °F 43.0 °F 86% 30.39 in 10.0 mi Calm Calm - N/A   Overcast
6:56 AM 46.9 °F 43.0 °F 86% 30.39 in 10.0 mi East 3.5 mph - N/A   Scattered Clouds
7:56 AM 48.9 °F 45.0 °F 86% 30.39 in 10.0 mi Calm Calm - N/A   Mostly Cloudy
8:56 AM 55.0 °F 42.1 °F 62% 30.39 in 10.0 mi SSE 6.9 mph - N/A   Clear
9:56 AM 57.0 °F 43.0 °F 59% 30.38 in 10.0 mi SSE 13.8 mph - N/A   Clear
10:56 AM 61.0 °F 41.0 °F 48% 30.37 in 10.0 mi South 12.7 mph - N/A   Clear
11:56 AM 60.1 °F 39.0 °F 46% 30.35 in 10.0 mi South 15.0 mph - N/A   Clear
12:56 PM 64.9 °F 39.9 °F 40% 30.34 in 10.0 mi South 18.4 mph 23.0 mph N/A   Clear
2:56 PM 64.0 °F 36.0 °F 35% 30.32 in 10.0 mi North - - N/A   Scattered Clouds
3:56 PM 64.0 °F 37.0 °F 37% 30.32 in 10.0 mi North - - 0.00 in Rain Light Rain
4:56 PM 61.0 °F 39.9 °F 46% 30.33 in 10.0 mi South 18.4 mph 28.8 mph 0.00 in   Mostly Cloudy
5:56 PM 59.0 °F 39.9 °F 49% 30.33 in 10.0 mi SSE 16.1 mph 19.6 mph N/A   Mostly Cloudy
6:56 PM 57.0 °F 39.9 °F 53% 30.33 in 10.0 mi SE 21.9 mph 25.3 mph N/A   Partly Cloudy
7:56 PM 54.0 °F 43.0 °F 66% 30.34 in 10.0 mi South 20.7 mph 33.4 mph 0.00 in Rain Light Rain
8:56 PM 52.0 °F 45.0 °F 77% 30.33 in 10.0 mi SSE 16.1 mph 23.0 mph 0.09 in Rain Light Rain
9:56 PM 51.1 °F 46.0 °F 83% 30.34 in 10.0 mi South 10.4 mph - 0.03 in Rain Light Rain
10:12 PM 51.8 °F 46.4 °F 82% 29.91 in 10.0 mi SSE 8.1 mph 18.4 mph 0.00 in Rain Light Rain
10:27 PM 51.8 °F 46.4 °F 82% 29.90 in 10.0 mi SSE 17.3 mph 23.0 mph 0.01 in Rain Light Rain
10:56 PM 51.1 °F 46.0 °F 83% 30.32 in 10.0 mi SSE 10.4 mph - 0.01 in Rain Light Rain
11:56 PM 52.0 °F 46.0 °F 80% 30.29 in 10.0 mi South 15.0 mph - 0.00 in Rain Light Rain